Tracking 25734 objects as of 28-May-2022
HD Live streaming from Space Station
objects crossing your sky now

BREEZE-M DEB (TANK)

Track BREEZE-M DEB (TANK) now!
10-day predictions


NORAD ID: 36133
Int'l Code: 2009-075C
Perigee: 437.2 km
Apogee: 14,891.7 km
Inclination: 45.9 °
Period: 275.8 minutes
Semi major axis: 14035 km
RCS: 6.9327 m2 (large)
Launch date: December 29, 2009
Source: Commonwealth of Independent States (former USSR) (CIS)
Launch site: TYURATAM MISSILE AND SPACE COMPLEX (TTMTR)

Note: This is SATELLITE DEBRIS
aabbcc
Your satellite tracking list
Your tracking list is empty




NASA's NSSDC Master Catalog

Two Line Element Set (TLE):
1 36133U 09075C   22148.25270972  .00000573  00000-0  55549-3 0  9994
2 36133  45.9335 354.5328 5149282 160.5716 230.1004  5.22112950235405
Source of the keplerian elements: AFSPC